Terminal Aerodrome Forecast
Issued by NWS

Current Version | Previous Version | Graphics & Text | Print | Product List | Glossary On
Versions: 1 2 3 4 5 6 7 8 9 10 11 12 13 14 15 16 17 18 19 20 21 22 23 24
000
FTUS41 KRNK 221729
TAFLWB
TAF
KLWB 221729Z 2218/2318 28011KT P6SM SCT040
     FM230000 00000KT P6SM SCT060
      TEMPO 2308/2312 3SM BR SCT020 BKN060
     FM231400 VRB03KT P6SM BKN035
      TEMPO 2314/2316 BKN025=

USA.gov is the U.S. government's official web portal to all federal, state and local government web resources and services.